SL-14 DEB, 45282

Orbit data source: Space-Track

SL-14 DEB, 45282 is space debris in LEO originally from a launch on Thu, 15 Aug 1991 UTC launched from the Plesetsk Missile And Space Complex (PKMTR). Debris objects in space refer to the collection of defunct objects orbiting the Earth. Examples of debris include non-operational satellites, rocket bodies, and fragments generated from explosions, collisions, or faulty payload assembly.

Loading next visibility...
Identifier
45282, 1991-056U
Orbit
LEO
Country
Flag of CISCIS
Related business
Manufacturer
Unknown
Mission
Spacecraft
Bus & Motor
Unknown
Mass
Unknown
Launch date (UTC)
1991-08-15 (34 years ago)
Launch vehicle
Unknown
Launch site
Plesetsk Missile And Space Complex (PKMTR)
Object type
Payload
Rocket body
Debris
Shape & HBR
Unknown shape, 0.2 m
Radar Cross Section
Small (<0.1 m²)

Expand to show TLE details & history
Last TLE update: 14 hours ago

TLE from 14 hours ago
0 SL-14 DEB
1 45282U 91056U   26036.30485390  .00000321  00000-0  80323-3 0  9996
2 45282  82.6168 250.4572 0015373 157.4430 202.7371 13.16754345287022
Epoch: 2026-02-05T07:18Z
TLE epoch observation values (Epoch: 2026-02-05T07:18:59.376Z)
Latitude
-0.00008°
Longitude
5.25079°
Altitude
1,210.696 km
Speed
7.244 km/s
True Right ascension
16h 41m 49s
True Declination
0° 00' 00"
Sunlit
Object was in daylight at epoch
Visualization orbit readout
Latitude
Unknown
Longitude
Unknown
Altitude
Unknown
Speed
Unknown
Apparent Right ascension
Unknown
Apparent Declination
Unknown
Sunlit
N/A
Visualization observer readout
Local Sidereal Time
23:35:42
Azimuth
Unknown
Elevation
Unknown
Doppler factor
Unknown
Orbital elements
Apogee altitude
1,206.026 km
Perigee altitude
1,182.744 km
Semi-major axis
7,572.522 km
Eccentricity
0.00154
Inclination
82.6168°
RAAN
250.4572°
Arg. of periapsis
157.443°
True anomaly
202.66913°
Mean anomaly
202.7371°
Eccentric anomaly
202.7031°
Mean motion
3.29369 °/min
Orbital period
109.3 mins
BSTAR
0.00080323
Loading maneuver chart data...
Computing Atmospheric mass density...
Loading historical data...
Loading historical data...
Loading historical data...
Loading historical data...
Loading historical data...
Loading historical data...
Loading historical data...

Documentation

Showing up to 5 results
|